CW9181 Weather Reports


Display with metric or nautical units.
time (UTC)temp
F
wind
direction
speed
MPH
gust
MPH
rain 1hr
in
rain 24hr
in
rain mn
in
humidity
%
barometer
mb
20260503213817 67 149 3.0 10.0 0.00 0.00 0.00 59 1011.9
20260503212811 66 185 4.0 11.0 0.00 0.00 0.00 60 1012.1
20260503211810 66 163 6.0 12.0 0.00 0.00 0.00 58 1012.0
20260503210810 66 245 5.0 12.0 0.00 0.00 0.00 60 1012.0
20260503205808 67 170 4.0 11.0 0.00 0.00 0.00 60 1012.1
20260503204828 67 231 4.0 16.0 0.00 0.00 0.00 59 1012.1
20260503203821 67 168 7.0 13.0 0.00 0.00 0.00 57 1012.2
20260503202821 66 243 5.0 12.0 0.00 0.00 0.00 59 1012.2
20260503201804 66 265 6.0 11.0 0.00 0.00 0.00 59 1012.4
20260503200806 66 220 4.0 11.0 0.00 0.00 0.00 61 1012.4
20260503195821 66 199 3.0 12.0 0.00 0.00 0.00 61 1012.6
20260503194804 65 224 3.0 9.0 0.00 0.00 0.00 62 1012.6
20260503193804 65 127 4.0 10.0 0.00 0.00 0.00 61 1012.7
20260503192820 65 132 8.0 12.0 0.00 0.00 0.00 60 1012.8
20260503191839 66 303 3.0 11.0 0.00 0.00 0.00 61 1012.7
20260503190821 66 202 8.0 15.0 0.00 0.00 0.00 60 1012.8
20260503185811 66 132 4.0 15.0 0.00 0.00 0.00 62 1012.9
20260503184812 66 260 6.0 12.0 0.00 0.00 0.00 62 1012.9
20260503183810 65 247 6.0 11.0 0.00 0.00 0.00 63 1013.0
20260503182806 64 153 7.0 13.0 0.00 0.00 0.00 63 1012.9
20260503181821 63 164 7.0 12.0 0.00 0.00 0.00 67 1012.8
20260503180821 62 205 4.0 12.0 0.00 0.00 0.00 68 1012.7
20260503175839 62 178 7.0 14.0 0.00 0.00 0.00 67 1012.8
20260503174820 62 213 5.0 14.0 0.00 0.00 0.00 70 1012.9
20260503173802 61 171 5.0 15.0 0.00 0.00 0.00 71 1012.9
20260503172842 61 185 10.0 15.0 0.00 0.00 0.00 69 1012.9
20260503171816 61 203 7.0 12.0 0.00 0.00 0.00 71 1012.7
20260503170819 61 177 5.0 10.0 0.00 0.00 0.00 72 1012.6
20260503150807 56 135 4.0 12.0 0.00 0.00 0.00 82 1011.7
20260503130839 53 114 5.0 12.0 0.00 0.00 0.00 85 1010.2
20260503110808 54 126 4.0 8.0 0.00 0.00 0.00 85 1010.1
20260503080812 56 155 2.0 4.0 0.00 0.00 0.00 81 1010.6
20260503072819 56 117 2.0 7.0 0.00 0.00 0.00 80 1010.9
20260503071803 56 188 2.0 7.0 0.00 0.00 0.00 79 1010.9
20260503070807 57 192 2.0 6.0 0.00 0.00 0.00 78 1010.9
20260503054807 59 159 2.0 7.0 0.00 0.00 0.00 73 1011.1
20260503053805 59 178 2.0 4.0 0.00 0.00 0.00 72 1011.0
20260503052822 59 168 1.0 7.0 0.00 0.00 0.00 72 1011.0
20260503051844 60 228 2.0 7.0 0.00 0.00 0.00 71 1011.0
20260503050807 60 150 3.0 6.0 0.00 0.00 0.00 72 1011.0
20260503045822 61 193 1.0 3.0 0.00 0.00 0.00 70 1010.9
20260503044821 61 197 1.0 6.0 0.00 0.00 0.00 70 1011.0
20260503043818 61 193 3.0 5.0 0.00 0.00 0.00 70 1010.8
20260503042814 62 161 2.0 7.0 0.00 0.00 0.00 70 1010.8
20260503041815 62 199 3.0 7.0 0.00 0.00 0.00 69 1010.6
20260503040815 62 184 5.0 9.0 0.00 0.00 0.00 69 1010.6
20260503035812 63 193 2.0 7.0 0.00 0.00 0.00 67 1010.4
20260503034812 63 172 3.0 7.0 0.00 0.00 0.00 67 1010.2
20260503033811 64 179 3.0 7.0 0.00 0.00 0.00 66 1010.1
20260503032813 64 147 2.0 6.0 0.00 0.00 0.00 65 1010.1
20260503031815 65 192 3.0 5.0 0.00 0.00 0.00 65 1010.1
20260503030837 66 236 0.0 4.0 0.00 0.00 0.00 64 1010.0
20260503025811 66 234 0.0 5.0 0.00 0.00 0.00 64 1009.8
20260503024811 67 255 2.0 4.0 0.00 0.00 0.00 63 1009.9
20260503023809 68 236 1.0 5.0 0.00 0.00 0.00 61 1009.8
20260503022811 68 250 2.0 6.0 0.00 0.00 0.00 59 1009.8
20260503021830 69 184 2.0 9.0 0.00 0.00 0.00 60 1009.7
20260503020808 69 234 3.0 8.0 0.00 0.00 0.00 58 1009.7
20260503015813 70 232 3.0 8.0 0.00 0.00 0.00 57 1009.8
20260503014811 71 170 2.0 8.0 0.00 0.00 0.00 57 1009.6
20260503013829 71 159 2.0 5.0 0.00 0.00 0.00 56 1009.6
20260503012808 71 218 3.0 7.0 0.00 0.00 0.00 57 1009.7
20260503011805 72 232 3.0 6.0 0.00 0.00 0.00 56 1009.6
20260503010810 73 199 3.0 7.0 0.00 0.00 0.00 55 1009.5
20260503005809 72 207 3.0 8.0 0.00 0.00 0.00 56 1009.5
20260503004808 73 228 4.0 8.0 0.00 0.00 0.00 55 1009.6
20260503003806 73 249 4.0 8.0 0.00 0.00 0.00 54 1009.6
20260503002806 74 175 3.0 7.0 0.00 0.00 0.00 52 1009.6
20260503001805 73 235 2.0 9.0 0.00 0.00 0.00 53 1009.7
20260503000806 74 216 6.0 10.0 0.00 0.00 0.00 51 1009.8
20260502235823 74 159 4.0 8.0 0.00 0.00 0.00 53 1009.9
20260502234840 73 214 2.0 7.0 0.00 0.00 0.00 53 1010.1
20260502233817 74 164 4.0 7.0 0.00 0.00 0.00 49 1010.0
20260502232816 75 238 2.0 8.0 0.00 0.00 0.00 48 1010.1
20260502231833 74 114 4.0 7.0 0.00 0.00 0.00 49 1010.2
20260502230832 75 151 2.0 7.0 0.00 0.00 0.00 49 1010.3
20260502225812 74 188 2.0 8.0 0.00 0.00 0.00 50 1010.5
20260502224807 74 233 1.0 5.0 0.00 0.00 0.00 49 1010.7
20260502223806 75 166 2.0 8.0 0.00 0.00 0.00 50 1010.8
20260502222830 74 207 3.0 8.0 0.00 0.00 0.00 53 1011.0
20260502221828 74 149 1.0 8.0 0.00 0.00 0.00 55 1011.3
20260502220831 73 195 2.0 8.0 0.00 0.00 0.00 55 1011.3
20260502215809 73 211 4.0 9.0 0.00 0.00 0.00 53 1011.5
20260502214813 72 222 6.0 10.0 0.00 0.00 0.00 53 1011.6